TimeCDT,TemperatureF,Dew PointF,Humidity,Sea Level PressureIn,VisibilityMPH,Wind Direction,Wind SpeedMPH,Gust SpeedMPH,PrecipitationIn,Events,Conditions,WindDirDegrees,DateUTC
12:15 AM,73.2,68.9,86,30.03,10.0,SSE,5.8,-,N/A,,Clear,150,2013-07-07 05:15:00
12:35 AM,72.5,68.9,88,30.02,7.0,South,4.6,-,N/A,,Clear,180,2013-07-07 05:35:00
12:55 AM,71.8,68.4,89,30.02,7.0,SSE,6.9,-,N/A,,Clear,160,2013-07-07 05:55:00
1:15 AM,71.2,68.2,90,30.01,7.0,South,4.6,-,N/A,,Clear,170,2013-07-07 06:15:00
1:35 AM,71.2,68.4,91,30.01,7.0,South,4.6,-,N/A,,Clear,180,2013-07-07 06:35:00
1:55 AM,72.3,68.5,88,30.01,7.0,South,6.9,-,N/A,,Clear,190,2013-07-07 06:55:00
2:15 AM,72.3,68.0,86,30.01,10.0,South,4.6,-,N/A,,Clear,170,2013-07-07 07:15:00
2:35 AM,71.6,67.5,87,30.01,10.0,South,6.9,-,N/A,,Clear,170,2013-07-07 07:35:00
2:55 AM,70.9,67.5,89,30.01,7.0,SSE,6.9,-,N/A,,Clear,160,2013-07-07 07:55:00
3:15 AM,71.2,66.7,86,30.01,10.0,South,6.9,-,N/A,,Clear,170,2013-07-07 08:15:00
3:35 AM,71.1,66.2,85,30.01,10.0,South,6.9,-,N/A,,Clear,180,2013-07-07 08:35:00
3:55 AM,70.7,65.8,85,30.01,10.0,South,6.9,-,N/A,,Clear,180,2013-07-07 08:55:00
4:15 AM,70.5,65.5,84,30.00,10.0,South,5.8,-,N/A,,Clear,180,2013-07-07 09:15:00
4:35 AM,69.8,65.3,86,30.00,10.0,South,4.6,-,N/A,,Clear,180,2013-07-07 09:35:00
4:55 AM,69.4,64.9,86,30.01,10.0,South,4.6,-,N/A,,Clear,180,2013-07-07 09:55:00
5:15 AM,68.9,64.8,87,30.01,10.0,South,3.5,-,N/A,,Clear,180,2013-07-07 10:15:00
5:35 AM,68.9,64.8,87,30.01,10.0,South,4.6,-,N/A,,Clear,190,2013-07-07 10:35:00
5:55 AM,68.4,64.6,88,30.01,10.0,South,4.6,-,N/A,,Clear,170,2013-07-07 10:55:00
6:15 AM,68.0,64.6,89,30.02,7.0,Calm,Calm,-,N/A,,Clear,0,2013-07-07 11:15:00
6:35 AM,68.7,65.3,89,30.02,10.0,South,3.5,-,N/A,,Mostly Cloudy,190,2013-07-07 11:35:00
6:55 AM,70.0,65.7,86,30.03,10.0,South,4.6,-,N/A,,Mostly Cloudy,170,2013-07-07 11:55:00
7:15 AM,70.9,65.5,83,30.03,10.0,South,4.6,-,N/A,,Mostly Cloudy,190,2013-07-07 12:15:00
7:35 AM,73.4,65.7,77,30.03,10.0,SW,6.9,-,N/A,,Scattered Clouds,220,2013-07-07 12:35:00
7:55 AM,74.8,65.8,73,30.03,10.0,SSW,5.8,-,N/A,,Clear,200,2013-07-07 12:55:00
8:15 AM,76.1,65.8,70,30.03,10.0,SSW,5.8,-,N/A,,Clear,200,2013-07-07 13:15:00
8:35 AM,77.0,66.2,69,30.03,10.0,SSW,6.9,-,N/A,,Clear,200,2013-07-07 13:35:00
8:55 AM,78.1,66.2,67,30.03,10.0,SSW,5.8,-,N/A,,Clear,210,2013-07-07 13:55:00
9:15 AM,79.5,67.3,66,30.03,10.0,SW,5.8,-,N/A,,Clear,220,2013-07-07 14:15:00
9:35 AM,80.1,67.3,65,30.03,10.0,SW,6.9,-,N/A,,Clear,220,2013-07-07 14:35:00
9:55 AM,81.0,67.6,64,30.03,10.0,SW,8.1,-,N/A,,Clear,230,2013-07-07 14:55:00
10:15 AM,82.4,68.7,63,30.03,10.0,SW,4.6,-,N/A,,Clear,220,2013-07-07 15:15:00
10:35 AM,83.5,68.5,61,30.02,10.0,South,4.6,-,N/A,,Clear,170,2013-07-07 15:35:00
10:55 AM,84.2,68.0,58,30.03,10.0,South,5.8,-,N/A,,Clear,170,2013-07-07 15:55:00
11:15 AM,85.8,69.3,58,30.02,10.0,SSE,5.8,-,N/A,,Clear,160,2013-07-07 16:15:00
11:35 AM,86.4,68.9,56,30.02,10.0,South,8.1,-,N/A,,Scattered Clouds,180,2013-07-07 16:35:00
11:55 AM,87.1,67.6,52,30.02,10.0,SSE,6.9,-,N/A,,Scattered Clouds,160,2013-07-07 16:55:00
12:15 PM,87.6,67.8,52,30.02,10.0,South,4.6,-,N/A,,Clear,170,2013-07-07 17:15:00
12:35 PM,87.8,68.2,52,30.02,10.0,SSE,8.1,-,N/A,,Clear,160,2013-07-07 17:35:00
12:55 PM,88.7,67.8,50,30.02,10.0,South,9.2,-,N/A,,Clear,170,2013-07-07 17:55:00
1:15 PM,89.1,66.9,48,30.02,10.0,South,8.1,-,N/A,,Clear,190,2013-07-07 18:15:00
1:35 PM,89.4,67.1,48,30.01,10.0,SSW,12.7,16.1,N/A,,Clear,200,2013-07-07 18:35:00
1:55 PM,90.0,68.4,49,30.02,10.0,SSW,6.9,16.1,N/A,,Clear,210,2013-07-07 18:55:00
2:15 PM,89.6,67.5,48,30.01,10.0,SSW,5.8,-,N/A,,Clear,210,2013-07-07 19:15:00
2:35 PM,88.9,68.2,50,30.01,10.0,SW,6.9,-,N/A,,Scattered Clouds,230,2013-07-07 19:35:00
2:55 PM,89.8,69.1,50,30.01,10.0,WSW,11.5,-,N/A,,Scattered Clouds,250,2013-07-07 19:55:00
3:15 PM,88.7,68.9,52,30.01,10.0,WSW,10.4,-,N/A,,Scattered Clouds,240,2013-07-07 20:15:00
3:35 PM,88.3,68.7,52,30.01,10.0,SW,8.1,-,N/A,,Scattered Clouds,230,2013-07-07 20:35:00
3:55 PM,88.2,69.4,54,30.00,10.0,WSW,8.1,-,N/A,,Clear,240,2013-07-07 20:55:00
4:15 PM,88.2,70.5,56,30.00,10.0,SW,6.9,-,N/A,,Clear,230,2013-07-07 21:15:00
4:35 PM,89.4,70.3,53,30.00,10.0,SW,6.9,-,N/A,,Clear,220,2013-07-07 21:35:00
4:55 PM,90.1,69.8,51,29.99,10.0,SW,8.1,-,N/A,,Clear,220,2013-07-07 21:55:00
5:15 PM,90.0,69.3,50,29.99,10.0,SW,10.4,-,N/A,,Clear,220,2013-07-07 22:15:00
5:35 PM,89.6,68.4,49,29.99,10.0,SW,10.4,-,N/A,,Clear,220,2013-07-07 22:35:00
5:55 PM,89.1,67.8,49,29.99,10.0,SSW,11.5,16.1,N/A,,Clear,210,2013-07-07 22:55:00
6:15 PM,89.1,68.0,50,29.98,10.0,SW,9.2,-,N/A,,Clear,220,2013-07-07 23:15:00
6:35 PM,88.7,67.5,49,29.98,10.0,SW,10.4,-,N/A,,Clear,220,2013-07-07 23:35:00
6:55 PM,88.2,68.2,51,29.99,10.0,SW,6.9,-,N/A,,Clear,220,2013-07-07 23:55:00
7:15 PM,87.6,68.9,54,29.99,10.0,SW,3.5,-,N/A,,Clear,220,2013-07-08 00:15:00
7:35 PM,86.9,69.6,56,29.99,10.0,South,3.5,-,N/A,,Clear,190,2013-07-08 00:35:00
7:55 PM,85.3,70.5,61,29.99,10.0,South,4.6,-,N/A,,Clear,190,2013-07-08 00:55:00
8:15 PM,83.1,71.1,67,29.99,10.0,South,5.8,-,N/A,,Clear,170,2013-07-08 01:15:00
8:35 PM,81.3,71.2,71,29.99,10.0,South,5.8,-,N/A,,Clear,180,2013-07-08 01:35:00
8:55 PM,80.1,71.2,74,29.99,10.0,South,5.8,-,N/A,,Clear,180,2013-07-08 01:55:00
9:15 PM,80.1,70.9,73,29.99,10.0,South,5.8,-,N/A,,Clear,180,2013-07-08 02:15:00
9:35 PM,80.1,70.7,73,29.99,10.0,South,6.9,-,N/A,,Clear,180,2013-07-08 02:35:00
9:55 PM,79.2,70.9,76,30.00,10.0,South,6.9,-,N/A,,Clear,180,2013-07-08 02:55:00
10:15 PM,79.7,70.7,74,30.00,10.0,South,5.8,-,N/A,,Mostly Cloudy,180,2013-07-08 03:15:00
10:35 PM,80.1,70.7,73,30.01,10.0,South,6.9,-,N/A,,Overcast,180,2013-07-08 03:35:00
10:55 PM,79.9,70.7,73,30.01,10.0,South,6.9,-,N/A,,Mostly Cloudy,180,2013-07-08 03:55:00
11:15 PM,79.2,70.9,76,30.02,10.0,South,5.8,-,N/A,,Mostly Cloudy,180,2013-07-08 04:15:00
11:35 PM,79.5,70.7,74,30.03,10.0,South,5.8,-,N/A,,Scattered Clouds,190,2013-07-08 04:35:00
11:55 PM,80.2,70.7,73,30.03,10.0,South,5.8,-,N/A,,Clear,190,2013-07-08 04:55:00